RH
86 84 81 77 73 67 63 60 57 54 51 49 47 45 43 41 39 37 35 32 31 30 31 31 31 29 27 25 24 22 21 20 20 22 30 33 28 25 30 46 62 64 57 51 50 52 52 52 52 52 51 49 49 48 47 47 47 46 46 47 47 46 45 46 47 48 50 52 54 56 60 64 67 71 76 81 83 83 81 78 81 84 83 79 76 74 72 70
89 88 85 80 75 69 65 61 57 54 50 48 45 43 41 40 39 38 38 36 35 32 31 30 30 31 30 28 26 24 23 21 21 21 23 25 27 29 27 30 46 62 68 63 54 50 51 52 53 53 52 51 49 48 48 48 48 48 48 48 48 46 46 47 48 48 50 52 54 54 57 60 62 66 70 74 77 77 74 74 80 84 84 82 81 78 76 73
92 90 86 79 72 66 62 58 55 52 49 46 44 41 39 38 36 35 36 36 37 36 34 32 30 30 30 30 29 27 25 24 24 24 22 20 21 27 32 31 31 40 56 68 69 61 54 51 52 53 53 53 52 51 50 49 50 49 48 49 48 47 47 49 48 48 50 52 53 53 55 57 58 61 63 66 70 71 69 72 77 79 80 82 82 80 77 73
94 89 83 76 70 66 62 59 56 54 51 48 45 42 40 38 36 34 33 33 34 36 36 35 32 31 29 30 31 30 28 27 28 27 22 21 20 21 28 34 33 30 34 51 68 74 71 63 56 55 53 52 52 52 52 51 51 50 49 49 48 48 48 49 49 50 51 51 52 53 55 55 56 58 60 64 69 70 70 72 74 74 76 79 81 80 77 75
87 83 80 76 74 71 68 65 61 58 54 51 49 46 44 42 41 38 35 33 32 33 34 35 35 32 31 30 29 30 30 30 30 29 25 23 22 21 23 29 34 34 30 34 48 64 80 85 80 72 64 58 54 53 54 54 54 53 51 50 49 49 49 49 50 51 51 52 53 53 55 56 57 58 60 65 70 72 71 73 75 74 74 76 79 79 80 80
78 76 75 73 71 69 67 64 61 58 56 56 55 53 51 48 46 43 40 37 34 33 33 34 34 34 33 31 30 29 30 31 31 30 28 26 24 23 22 23 28 33 36 35 36 45 64 85 97 97 90 79 70 66 61 56 56 57 56 53 52 51 50 50 50 51 52 53 54 55 57 58 59 62 65 70 74 75 72 72 74 75 77 78 80 83 84 82
67 66 66 66 66 65 64 64 61 60 60 61 60 58 55 51 48 45 42 40 38 35 33 33 33 33 34 33 32 30 30 31 31 31 30 28 27 26 25 23 23 27 35 39 38 37 45 66 89 102 104 98 94 90 78 68 65 62 60 58 58 57 55 54 54 54 54 55 57 61 64 64 65 68 73 77 77 75 70 71 75 79 83 85 87 88 85 80
56 56 57 58 59 61 62 62 62 61 60 57 56 54 52 49 45 43 41 40 39 37 36 34 32 33 33 34 34 33 34 33 30 31 31 30 29 28 28 27 24 23 28 35 41 41 40 49 68 86 98 101 104 105 97 89 86 78 68 62 60 60 60 59 58 59 59 60 64 68 72 71 72 77 82 79 73 69 70 73 79 84 89 93 94 90 84 78
61 58 57 56 55 55 55 55 54 53 52 49 47 45 44 42 39 39 38 37 36 36 36 34 33 33 33 34 35 37 40 36 30 31 32 31 30 30 30 30 28 25 24 27 36 45 46 45 53 68 85 94 97 102 103 102 102 95 83 71 66 69 71 70 68 67 68 70 73 77 78 75 75 81 80 72 68 71 77 82 86 90 93 95 92 86 80 73
70 69 69 67 65 63 59 56 53 50 50 49 47 43 40 37 35 33 32 33 33 33 34 33 33 32 33 35 36 43 46 38 32 32 32 30 30 30 31 32 31 29 26 25 28 38 48 49 47 52 68 82 86 90 96 103 107 102 93 86 86 92 92 88 85 82 82 83 83 87 86 83 82 81 75 71 75 80 85 90 94 95 93 90 85 78 73 67
66 68 70 72 74 75 73 69 63 58 54 52 49 44 40 37 34 31 30 30 30 31 31 32 31 32 34 35 39 50 49 40 35 33 32 31 30 30 31 32 34 32 30 28 26 30 39 48 49 48 54 68 78 80 82 92 102 103 99 97 99 102 100 98 97 94 94 95 96 99 95 91 87 80 75 80 86 87 88 93 96 94 91 86 79 73 66 59
66 64 64 65 67 70 72 73 69 63 56 52 49 45 42 39 35 32 29 28 28 29 30 30 30 31 34 35 43 51 48 42 39 36 35 33 31 31 31 32 34 35 34 33 30 28 30 39 50 54 52 55 68 75 74 76 84 92 97 98 98 97 96 97 98 99 101 103 105 102 98 95 88 81 82 88 93 92 90 92 92 90 88 80 71 63 55 46
71 68 64 62 60 60 61 63 64 61 54 49 47 46 44 41 38 34 31 29 29 29 30 30 30 31 33 38 46 47 44 42 41 40 38 36 33 32 31 32 33 35 35 35 33 30 27 30 40 51 55 53 58 66 70 70 69 74 81 86 88 89 91 92 92 96 100 104 103 96 94 91 82 82 87 90 93 92 90 91 89 84 76 66 56 48 39 32
71 70 67 63 60 59 57 57 57 55 52 48 46 46 44 41 40 39 35 31 30 30 31 31 32 32 34 43 48 44 42 43 43 43 41 38 35 32 31 31 32 33 35 35 34 32 30 27 30 39 51 58 58 59 66 70 66 64 67 71 77 80 81 81 81 85 88 92 93 89 89 85 78 84 88 89 92 89 86 81 73 63 54 46 40 34 30 26
66 65 61 58 55 54 54 55 55 53 51 48 45 45 43 41 42 43 40 34 32 32 34 35 35 34 38 48 49 41 43 47 45 44 41 39 36 33 31 30 30 32 33 35 34 33 32 29 28 30 41 55 61 63 67 69 67 63 62 64 67 69 70 70 70 71 73 76 79 80 81 79 76 80 79 78 76 69 63 55 48 43 37 35 32 29 27 25
59 55 49 44 41 40 43 47 50 52 52 49 47 45 43 41 42 45 44 38 35 36 39 41 41 40 44 52 49 41 46 53 48 43 42 41 38 35 32 30 30 30 32 34 35 34 33 32 31 29 32 43 57 69 73 72 70 66 62 61 62 64 66 65 63 63 63 64 66 67 67 66 63 61 57 54 51 46 43 40 37 36 33 31 29 28 27 26
46 39 32 28 26 26 27 31 36 42 46 48 47 44 42 41 43 47 47 42 38 40 44 47 46 46 51 54 51 48 52 56 49 44 46 44 38 36 34 31 29 29 31 33 34 34 34 33 34 32 31 34 45 63 77 81 80 75 69 64 64 67 67 64 61 59 58 57 56 57 59 58 55 50 46 43 41 39 37 36 35 33 32 32 30 30 31 31
31 25 22 20 20 20 20 21 23 26 32 37 41 41 40 40 43 46 49 46 41 43 48 52 53 53 57 59 55 52 54 56 50 46 48 44 39 38 37 34 31 29 30 31 33 35 35 35 35 35 34 33 36 48 69 86 93 89 83 80 79 78 73 66 62 59 56 55 54 58 62 59 54 50 46 43 41 38 36 36 35 35 35 36 36 37 37 38
21 20 19 19 19 19 19 19 19 20 22 26 31 35 36 38 41 45 49 46 44 49 54 57 59 59 59 58 53 51 54 55 51 49 48 45 43 42 41 38 34 31 30 30 32 34 36 37 36 37 37 37 37 40 55 78 95 98 97 98 95 88 79 70 66 61 58 59 63 69 67 59 54 51 49 47 43 41 40 39 39 40 42 43 43 44 43 42
19 19 19 19 19 19 18 18 18 19 19 21 25 28 31 35 39 44 48 48 51 54 56 59 60 61 59 57 54 53 55 56 53 52 50 46 45 45 43 39 35 32 30 30 32 35 38 40 39 39 40 40 40 40 44 60 83 100 105 106 103 97 88 79 73 68 66 70 78 80 72 64 61 57 55 51 48 46 44 44 46 48 50 50 49 47 47 45
20 20 20 21 21 21 20 19 19 19 19 20 22 25 29 33 39 47 52 55 57 56 59 62 61 61 61 59 57 56 57 57 56 55 52 48 46 46 45 41 37 33 30 30 32 35 39 41 42 42 41 40 40 41 40 46 66 91 105 106 106 106 100 91 84 82 84 90 94 90 81 74 69 64 61 56 54 53 52 54 56 57 57 55 53 51 50 49
20 21 22 25 27 25 22 21 20 19 19 20 22 24 28 34 43 51 54 55 53 53 57 60 61 62 61 59 56 55 58 58 57 56 51 48 47 47 47 44 40 35 31 31 33 37 41 45 45 43 42 41 41 41 40 41 49 70 95 104 105 108 105 99 97 97 102 106 104 97 89 81 75 71 67 63 62 61 62 64 64 63 61 58 56 55 54 53
21 21 26 32 33 30 26 24 22 21 21 21 22 25 30 40 48 51 52 50 48 49 52 56 63 63 58 55 53 53 58 58 55 53 48 47 47 46 46 44 42 38 33 34 38 44 48 49 48 45 44 44 43 42 41 41 43 58 88 104 105 106 103 102 103 104 107 109 107 103 96 88 82 79 75 71 70 71 71 71 69 66 63 61 59 57 56 55
21 24 32 38 38 36 34 31 30 28 24 23 26 30 37 45 50 50 49 47 46 48 50 52 58 60 53 49 49 53 57 55 51 49 45 45 48 47 45 44 44 42 40 41 44 49 52 52 50 50 52 52 46 40 39 41 44 60 88 104 105 103 102 102 103 103 104 106 106 104 100 92 87 84 82 80 78 79 78 74 71 67 64 62 60 58 57 56
22 30 37 40 40 39 37 38 39 34 29 30 32 36 41 46 47 46 45 44 44 46 48 47 51 59 53 44 48 56 57 55 53 50 45 49 57 57 54 54 53 51 48 47 49 51 53 52 50 51 54 50 43 39 40 47 55 71 92 105 105 103 101 101 101 101 102 103 104 104 100 93 90 88 86 84 83 82 80 76 72 67 64 62 61 59 58 58
28 37 40 40 39 37 36 37 36 32 31 34 35 37 41 44 43 42 40 41 42 43 44 43 48 54 49 47 55 59 60 61 60 54 52 58 67 66 59 57 59 59 54 50 52 53 53 53 50 49 48 44 42 41 43 52 64 77 92 101 102 101 101 101 101 102 101 101 103 103 97 91 91 90 87 86 85 83 79 76 71 67 65 63 62 60 59 59
35 38 37 36 34 32 33 32 29 29 30 31 33 35 37 38 38 37 36 37 39 40 41 42 45 48 50 57 60 58 64 67 62 61 64 70 77 74 65 61 64 63 57 53 54 55 54 52 48 46 44 42 45 50 58 68 77 87 99 103 102 100 101 102 102 102 102 102 102 99 94 90 90 90 89 89 86 81 77 74 69 67 65 63 62 62 61 56
36 34 33 31 30 30 30 29 27 28 29 30 30 32 34 34 34 34 33 35 37 38 39 41 43 43 48 59 63 65 71 68 65 72 76 76 81 80 73 72 75 70 63 58 58 58 55 51 49 50 51 54 65 78 85 88 93 101 106 104 101 101 102 101 102 102 101 100 98 95 93 93 94 93 93 92 85 79 75 72 70 67 65 64 65 65 59 49
31 30 30 29 29 30 30 29 29 29 30 30 30 31 32 32 31 31 32 35 37 38 40 41 41 42 45 55 66 71 71 66 68 74 72 71 77 78 75 76 78 73 65 61 60 59 53 47 47 51 60 73 85 94 95 95 101 101 96 93 97 101 101 100 102 101 97 96 98 98 98 98 98 98 96 91 84 79 75 72 70 67 66 69 69 62 51 42
30 31 31 31 31 31 30 30 31 31 31 30 30 31 32 31 30 30 32 36 37 38 41 40 41 43 44 53 64 66 62 61 63 64 62 64 70 73 72 70 69 66 63 60 58 53 44 41 41 50 73 85 80 81 92 101 100 90 86 92 98 101 101 101 101 99 97 98 101 101 100 100 102 100 94 88 83 79 77 73 71 70 72 73 66 54 45 40
33 33 33 32 31 29 28 28 28 28 27 27 28 29 30 30 29 30 34 39 40 41 43 41 40 42 44 52 60 58 53 52 54 55 55 58 61 62 60 58 59 58 56 57 57 50 43 41 47 67 89 88 76 80 95 101 91 83 90 100 103 103 102 102 101 100 99 100 100 101 102 102 105 102 92 86 83 80 78 76 76 78 78 71 57 47 42 40
34 32 30 26 23 21 20 18 18 18 18 19 21 22 24 25 28 34 39 42 43 43 42 41 41 44 48 52 55 53 49 49 50 51 51 54 57 57 53 52 56 56 55 55 52 48 47 52 67 89 96 86 85 95 101 102 97 94 100 103 102 103 102 101 101 100 100 100 101 104 104 105 106 99 89 85 83 81 81 81 84 84 75 62 50 45 44 43
28 24 19 15 13 10 9 9 8 8 9 10 11 13 15 19 26 33 37 40 44 43 43 43 45 48 50 53 53 50 47 47 49 50 51 53 55 56 53 52 54 56 61 65 60 60 70 79 89 102 102 98 102 104 101 103 102 101 102 101 101 102 101 100 101 103 103 104 105 105 105 106 104 94 87 86 85 85 87 87 87 80 66 54 47 46 47 46
18 13 10 7 6 5 5 5 5 5 5 5 6 8 10 13 18 22 26 32 39 42 42 44 46 48 50 53 52 49 47 47 48 49 51 54 54 54 53 52 53 57 67 73 73 84 98 100 100 103 104 105 107 104 103 102 100 101 101 101 103 102 100 100 101 102 103 103 105 106 105 106 101 91 86 88 90 92 92 90 85 74 60 51 48 48 50 50
9 7 6 5 6 5 5 5 5 6 5 6 6 7 8 8 9 12 16 22 28 32 36 40 44 47 50 50 48 46 48 50 49 48 49 52 55 57 56 55 61 73 84 83 82 98 108 102 100 102 103 106 106 104 105 102 100 102 100 101 104 100 100 102 101 101 101 101 104 106 104 100 94 89 88 92 97 98 96 90 80 68 58 51 48 50 53 54
7 6 6 6 5 5 5 5 6 6 7 7 7 7 7 7 7 9 11 14 17 21 26 30 35 39 42 44 43 43 46 48 49 48 50 51 53 58 65 74 87 98 101 97 95 103 105 102 102 102 103 106 106 104 104 102 101 101 100 101 102 100 100 101 101 101 100 100 103 104 102 95 90 89 93 99 103 102 97 88 76 66 58 53 50 49 50 52
6 6 5 5 5 5 5 5 6 6 7 7 8 8 7 7 8 8 9 11 13 16 18 21 26 30 32 32 34 37 39 40 41 46 56 63 62 62 68 86 103 106 102 101 102 103 101 101 103 103 104 104 102 102 101 101 101 100 100 101 102 102 102 102 102 99 96 98 100 101 97 91 90 96 101 105 106 103 96 86 75 67 60 56 54 50 48 48
6 5 5 4 4 5 5 5 6 6 7 7 7 8 8 9 10 9 11 12 12 13 15 17 21 24 28 33 37 40 44 48 53 61 73 82 85 82 83 94 104 104 102 101 101 102 102 103 103 102 102 101 100 101 101 100 100 99 101 102 100 98 97 98 97 93 94 98 99 99 95 92 97 104 106 107 107 103 95 87 77 68 63 60 56 51 48 47
5 5 5 5 5 5 5 6 6 6 6 7 8 9 10 11 12 14 16 14 13 15 17 23 31 40 55 68 72 74 80 85 88 92 94 96 100 101 99 101 101 98 99 98 99 100 99 102 105 101 100 100 99 100 100 100 100 100 101 101 98 95 94 96 93 91 97 99 97 99 98 99 106 108 106 108 108 101 93 87 79 71 65 62 57 53 51 48
5 5 5 6 6 6 6 7 6 7 7 8 9 11 12 15 20 28 30 25 27 35 39 49 64 76 89 97 97 97 100 102 101 101 101 100 104 106 103 100 97 94 96 99 102 101 97 99 103 99 99 100 99 99 100 100 100 100 100 99 99 100 101 101 101 102 105 103 101 102 103 106 109 107 108 110 106 99 92 87 81 74 68 64 61 57 53 51
6 6 6 6 6 7 7 8 7 8 9 10 13 15 20 28 35 47 52 47 53 68 76 83 93 97 99 101 100 100 100 101 100 100 100 100 102 104 102 100 99 98 100 102 102 100 99 101 101 99 100 101 100 102 102 101 100 100 100 100 101 101 102 103 104 105 106 106 105 105 106 109 107 105 109 108 103 100 95 89 84 76 71 68 64 61 58 56
6 6 7 7 8 8 7 8 9 11 13 16 22 30 39 46 51 60 65 61 68 87 97 100 101 100 99 100 100 100 100 100 100 100 101 100 101 102 101 101 101 101 102 101 96 94 98 101 102 101 102 103 104 105 105 101 100 100 100 100 100 100 101 102 102 103 104 104 104 104 105 105 104 105 109 107 105 101 94 89 85 77 73 72 68 65 63 61
6 7 9 9 11 12 12 14 17 20 23 29 40 51 60 65 63 62 62 65 78 95 102 101 100 100 100 100 100 100 100 100 100 100 100 100 100 100 101 102 99 95 93 90 88 89 93 100 102 102 105 108 107 107 108 105 101 100 100 100 100 101 101 102 103 105 105 104 103 103 103 103 104 106 110 110 107 101 94 90 86 79 76 76 73 69 67 66
6 7 10 14 19 22 25 31 36 37 37 44 56 66 74 77 66 58 65 81 95 103 103 100 100 100 100 100 100 100 100 100 100 100 100 100 99 99 100 101 98 93 91 91 93 95 96 100 101 98 101 105 105 106 107 105 103 102 100 100 101 103 103 102 104 106 104 104 104 104 103 103 103 105 108 110 108 103 98 92 86 80 79 79 78 76 73 71
10 10 11 20 31 39 45 50 57 59 55 58 67 74 79 75 60 62 84 102 105 104 102 101 100 100 100 100 100 100 100 100 100 100 100 100 100 100 99 100 99 97 95 95 98 98 100 102 100 97 99 101 104 107 104 102 103 102 101 101 102 103 103 102 104 105 103 104 105 104 103 104 103 103 105 105 105 102 95 89 84 82 84 86 85 81 78 74
17 20 21 31 45 56 65 69 73 76 73 72 78 82 82 71 62 77 100 105 102 103 104 103 101 100 100 100 100 99 99 100 100 100 101 100 101 103 101 100 100 100 100 99 100 100 101 99 94 93 96 99 104 107 104 104 105 103 102 104 106 107 106 104 104 105 103 103 103 102 104 105 104 103 103 103 100 95 87 85 88 91 95 96 90 82 78 73
29 36 40 49 61 70 80 86 86 86 84 84 86 86 82 72 71 90 104 102 100 103 105 105 103 104 104 103 101 100 100 101 100 99 101 102 102 103 101 100 102 103 102 102 102 101 101 97 92 92 96 100 105 105 104 104 104 102 101 102 105 108 106 105 105 105 103 102 102 103 105 105 104 102 102 98 90 86 87 92 99 102 101 98 91 83 77 72
44 50 55 66 77 83 91 95 91 89 92 95 95 91 85 79 82 96 105 107 107 106 104 105 104 105 107 104 102 101 100 100 99 98 99 99 98 99 99 99 103 104 102 101 103 103 102 100 98 99 102 104 104 102 103 104 102 100 100 99 102 105 103 103 104 104 103 103 103 103 102 101 97 93 91 89 87 92 98 103 104 101 96 94 91 85 79 72
63 65 68 77 88 93 95 94 90 88 95 101 101 97 93 91 94 101 105 110 113 108 103 102 102 102 103 102 101 101 100 99 99 99 98 97 97 98 98 98 98 95 91 93 98 100 99 98 100 103 106 105 102 100 101 103 102 101 100 100 102 104 102 101 101 101 101 103 102 99 98 96 93 90 93 98 103 105 102 98 95 91 91 95 94 87 80 72
86 86 86 91 100 105 101 94 90 92 98 103 104 103 102 102 103 103 102 104 110 109 103 99 100 100 99 100 101 101 100 100 101 100 99 99 100 100 100 100 99 95 91 93 95 93 92 95 100 103 103 102 101 100 101 101 102 103 102 101 102 103 102 101 102 102 102 103 102 100 100 99 98 99 103 106 105 99 92 89 89 90 94 98 98 92 82 73
101 101 101 103 106 108 103 98 96 97 101 104 105 106 107 107 105 101 98 97 103 110 106 101 100 100 99 100 100 100 101 101 101 100 101 101 101 100 101 101 101 100 100 101 101 99 98 100 101 101 101 99 98 99 101 101 100 102 102 101 103 104 103 101 102 103 103 103 103 102 103 102 100 101 102 102 100 94 92 93 94 98 100 100 102 97 83 75
104 103 104 104 104 105 103 102 102 101 101 104 106 107 108 109 107 104 101 99 102 110 110 105 103 102 100 99 99 100 100 100 100 100 100 100 100 100 101 100 100 101 101 101 102 102 103 103 102 102 102 101 99 100 102 101 101 101 99 97 100 102 103 103 103 103 103 103 104 103 103 103 102 102 102 103 103 99 99 100 101 104 104 103 108 103 85 79
Wind_Speed
66 66 67 67 68 68 67 67 67 67 67 67 66 66 66 65 65 64 64 64 63 63 64 65 67 69 70 70 71 72 73 75 79 82 86 88 84 81 80 78 79 78 78 77 76 76 75 74 74 74 74 73 73 72 71 70 69 69 70 70 71 70 67 65 64 63 62 62 61 61 60 59 59 60 61 61 61 61 61 61 60 60 59 58 57 57 57 58
69 69 69 70 69 69 69 69 69 69 69 69 69 69 69 68 68 67 67 66 65 65 65 65 66 67 68 69 70 71 71 72 73 78 86 88 85 82 81 80 81 81 79 78 77 76 75 75 74 74 74 74 74 73 71 71 70 71 71 71 72 70 67 65 65 63 62 62 61 61 60 60 60 61 62 62 62 62 62 61 60 60 59 58 58 58 59 60
71 71 71 71 71 71 71 71 71 71 72 71 71 71 71 71 71 70 69 69 68 68 67 66 66 66 66 67 69 70 71 70 71 75 81 82 84 85 84 83 83 82 80 79 77 76 75 75 74 74 75 75 75 73 72 71 71 72 73 73 73 70 67 66 64 63 62 62 61 61 61 61 61 61 62 62 62 62 61 61 61 60 60 59 59 59 60 62
73 73 74 74 73 73 73 73 73 73 74 74 74 74 73 73 73 73 72 72 71 70 70 69 68 67 65 66 67 69 69 69 71 75 77 76 79 83 86 86 85 83 81 79 79 77 76 75 74 74 75 75 75 74 72 72 73 74 74 75 73 69 67 66 64 63 62 62 61 61 61 61 61 61 61 62 62 62 62 62 61 61 60 60 60 61 62 63
75 75 76 76 76 76 76 76 76 76 76 76 76 76 75 75 74 74 74 74 73 73 72 72 70 68 67 66 66 67 68 68 71 74 75 73 75 78 83 87 87 85 82 80 80 78 77 75 74 74 74 75 74 73 73 73 74 75 76 75 71 68 67 66 64 63 62 62 62 62 61 61 61 61 61 62 62 62 62 62 61 61 61 61 61 61 62 63
77 77 78 78 78 78 78 78 77 77 76 76 76 76 75 75 74 74 74 74 74 75 75 74 73 71 69 68 67 66 66 67 70 73 73 73 73 74 77 83 87 87 84 82 81 80 78 76 75 75 75 74 73 72 73 73 74 75 75 73 70 68 67 66 64 63 63 62 62 61 62 62 61 61 61 62 62 62 62 61 62 62 62 62 62 62 62 62
75 75 76 77 77 77 77 76 76 75 74 73 74 74 75 75 75 74 74 74 74 75 75 76 75 73 72 70 68 67 65 67 70 72 72 72 73 73 74 77 82 85 87 85 83 81 79 78 77 76 76 74 73 72 73 72 73 74 73 71 69 68 67 66 65 63 63 62 61 61 62 62 61 61 61 62 62 62 62 62 62 62 62 62 62 62 62 62
70 70 70 71 72 72 72 72 72 71 70 70 71 73 74 75 76 76 75 75 75 75 75 76 76 75 74 72 70 68 67 71 70 69 70 71 72 72 73 74 77 81 85 87 85 83 81 80 79 78 77 75 74 73 72 71 71 72 72 70 68 67 66 65 64 63 63 62 61 61 62 62 61 61 62 63 62 61 62 62 62 62 62 61 62 62 62 61
70 70 70 69 69 70 70 70 70 70 69 70 71 72 73 75 76 77 77 77 76 76 76 76 75 76 75 73 72 69 71 74 70 67 70 71 71 72 72 73 74 77 81 85 86 85 83 82 81 80 79 77 75 74 72 70 70 72 71 69 67 65 65 64 63 63 62 62 62 62 63 63 62 62 63 62 61 61 62 62 62 62 61 61 62 62 62 62
73 73 72 72 72 72 72 73 72 72 72 72 72 73 73 74 76 76 77 78 78 78 78 77 76 75 75 74 72 71 75 76 70 69 70 69 70 71 71 72 73 75 76 80 84 86 86 86 84 82 80 78 76 75 72 70 71 72 70 67 65 64 64 63 63 62 62 62 62 62 63 63 62 63 62 60 60 60 61 61 61 61 61 62 62 63 64 64
75 75 75 75 75 75 75 76 76 75 74 74 74 74 73 74 75 75 76 76 78 79 79 78 77 75 74 73 71 73 78 77 72 71 70 69 69 70 71 71 72 73 74 76 80 85 88 88 85 83 81 79 77 76 73 71 72 72 69 66 64 64 64 63 63 62 62 62 62 63 62 62 63 62 59 58 59 60 60 60 61 61 62 63 63 64 65 65
75 77 78 78 78 78 77 77 78 78 77 75 74 74 73 73 74 74 75 75 76 78 79 79 78 76 74 71 71 75 79 76 73 72 71 70 70 70 70 71 72 72 73 74 77 82 86 87 86 84 82 80 79 77 74 73 73 71 69 66 66 65 64 63 63 62 62 62 63 63 61 62 61 59 57 57 58 59 60 60 61 62 63 64 64 65 66 66
76 77 79 80 80 80 80 79 79 79 78 76 75 74 73 72 72 72 73 74 75 76 77 79 79 77 74 71 73 77 76 75 75 74 73 72 72 72 71 72 72 72 73 74 76 79 81 85 86 85 83 81 79 77 74 73 73 72 69 68 67 66 65 64 63 62 63 63 64 62 61 62 59 57 57 57 59 60 61 62 62 63 64 65 65 67 66 66
77 78 79 81 81 82 82 81 81 81 80 78 75 74 73 71 70 70 72 72 73 74 75 77 78 78 74 73 77 76 73 73 74 75 76 75 73 73 72 72 72 72 72 74 76 76 77 80 83 85 84 81 80 78 75 74 73 72 70 69 68 66 65 65 64 65 65 64 64 61 60 61 58 57 58 58 60 61 61 62 63 64 64 65 66 66 65 65
78 79 80 80 81 82 82 82 82 82 81 79 76 74 73 70 68 68 70 70 70 71 73 75 77 77 74 75 78 76 72 72 74 76 76 75 74 73 73 72 71 71 72 73 74 74 75 75 78 81 83 83 81 78 76 75 74 73 71 70 69 67 66 67 67 68 66 64 62 59 60 61 58 58 59 59 59 60 61 62 63 64 64 65 65 64 64 64
78 78 78 78 78 79 79 80 81 81 80 79 76 74 72 69 67 67 68 68 67 67 69 72 75 76 75 76 78 75 72 73 75 75 73 74 74 73 73 72 71 71 72 72 72 73 72 72 73 77 80 83 82 80 77 76 75 74 72 71 69 68 69 71 71 69 66 63 61 59 60 61 58 58 59 58 59 59 60 61 62 63 63 64 64 64 64 63
75 75 74 74 74 74 75 75 76 77 77 77 75 73 71 68 67 67 66 66 65 65 66 69 72 74 75 76 77 74 73 74 74 72 72 74 74 72 72 72 71 71 72 71 70 70 70 69 70 73 76 80 81 81 79 77 76 75 73 72 71 71 73 74 72 69 65 62 60 59 60 61 59 59 59 58 59 59 60 61 62 63 63 64 64 63 62 60
71 71 71 71 72 72 72 73 73 73 73 74 73 72 70 68 67 66 64 64 63 62 63 67 70 72 74 76 76 75 73 73 73 71 72 73 73 71 71 71 71 71 71 70 69 67 67 67 69 70 73 76 79 80 80 79 77 76 75 74 74 74 76 75 72 68 65 62 60 59 61 62 61 61 59 59 60 60 61 61 62 63 63 63 62 61 59 58
69 69 69 70 70 71 71 71 71 71 71 71 71 70 69 67 66 64 63 62 61 60 62 65 68 71 74 76 76 74 73 73 72 72 72 72 71 71 71 71 71 70 69 68 67 65 64 65 67 68 69 72 75 78 80 80 80 79 78 77 77 77 76 74 71 68 66 63 60 61 64 65 63 61 60 60 60 60 60 61 61 61 61 61 60 59 58 58
67 67 68 68 68 68 68 69 69 69 69 69 68 68 67 66 65 63 61 60 60 60 61 63 67 70 73 75 74 73 73 72 72 71 71 71 71 71 71 71 70 69 67 66 65 64 63 63 64 65 67 70 73 77 79 81 81 81 80 79 78 77 76 74 72 69 67 64 62 65 67 65 64 61 60 60 59 60 60 60 60 60 60 60 60 59 59 60
66 66 65 65 64 64 64 65 66 67 67 67 67 66 65 63 62 61 60 60 61 60 60 63 66 68 71 73 73 73 72 71 71 71 71 70 70 71 70 69 68 67 66 65 65 64 63 61 62 65 67 69 72 75 78 80 81 81 80 79 78 77 75 74 72 70 68 65 65 67 68 67 65 61 59 58 58 59 58 58 58 59 60 60 60 59 59 60
64 64 63 62 61 60 60 61 62 63 65 65 65 64 62 61 61 61 61 62 62 61 61 63 64 67 70 72 72 71 70 70 71 71 70 69 69 70 69 68 67 67 65 64 64 63 61 60 61 64 66 68 71 73 74 76 79 79 79 78 77 76 75 73 72 69 66 65 67 69 69 68 64 60 58 57 57 57 57 57 58 59 60 59 58 58 58 59
62 61 60 60 59 59 59 59 60 61 63 63 62 61 59 60 62 62 62 63 63 61 60 62 64 67 69 69 69 68 69 70 71 71 70 68 69 69 69 68 67 67 65 63 63 62 60 59 60 63 66 69 70 70 70 72 75 76 76 76 75 76 75 73 71 67 65 65 66 68 68 66 62 58 56 56 56 56 56 57 58 59 59 58 57 57 57 59
60 59 59 59 58 58 58 58 59 61 62 61 59 58 59 61 63 63 63 63 62 61 61 62 64 66 67 67 66 65 67 69 69 69 68 67 67 68 67 67 67 66 65 64 63 62 61 60 61 64 67 68 68 67 66 68 71 73 74 74 75 75 74 72 69 66 64 64 65 66 65 62 59 55 54 55 55 55 56 57 58 58 57 56 56 57 58 59
57 57 57 58 58 58 58 58 59 60 59 58 58 58 60 62 63 63 63 63 62 61 61 61 62 65 66 64 63 65 67 67 67 68 67 66 66 66 66 66 66 65 65 64 63 62 61 62 65 66 66 66 65 64 64 66 69 71 72 74 74 74 72 70 67 64 62 62 64 63 61 58 54 52 53 54 54 55 57 57 56 56 56 56 57 57 58 59
55 55 56 57 57 57 57 58 58 58 56 56 57 58 60 61 62 62 62 62 61 60 60 60 61 63 61 60 63 66 66 65 67 67 66 65 65 66 66 66 65 65 64 63 62 61 62 64 65 65 64 63 63 63 63 65 67 69 70 72 72 71 69 67 65 62 61 60 61 60 58 55 52 51 52 52 53 55 56 56 55 55 54 56 57 57 58 58
53 54 55 56 56 56 56 57 56 55 55 55 56 57 59 61 61 62 62 61 60 60 60 59 61 60 57 60 64 64 64 66 67 66 65 65 65 65 65 64 64 64 63 61 59 60 62 64 63 62 61 61 61 61 62 63 64 66 68 69 69 67 66 65 63 61 59 59 59 57 55 53 52 51 50 51 52 54 56 55 54 53 54 55 56 57 58 57
53 54 55 55 54 54 55 55 54 53 54 55 55 57 59 60 61 61 59 58 58 58 58 59 60 58 56 59 61 62 65 67 66 65 66 66 64 64 64 63 62 62 61 59 58 61 63 63 62 60 60 59 59 60 61 62 61 63 66 67 66 64 63 62 61 60 59 57 56 55 54 53 51 49 50 51 52 53 55 55 54 53 54 55 56 57 57 56
52 52 53 53 52 52 53 53 52 52 53 54 55 56 58 59 59 58 55 55 56 57 58 59 59 57 56 58 60 64 67 66 64 66 66 65 63 63 63 63 62 61 59 58 61 65 65 63 61 59 58 58 60 61 61 60 61 64 66 64 63 62 61 61 60 59 56 54 53 53 52 51 49 49 51 51 50 51 53 54 54 54 54 54 55 56 55 54
49 49 50 50 50 51 52 52 52 53 53 54 54 55 56 57 56 53 51 53 55 56 57 58 58 58 58 58 62 66 66 64 64 65 64 63 62 63 65 64 62 59 58 59 63 65 62 60 59 57 57 59 61 61 60 60 62 63 62 60 60 60 60 60 59 56 53 52 52 51 50 49 49 51 51 50 49 50 51 52 53 53 53 54 55 54 53 52
46 48 49 50 51 52 53 53 54 55 55 55 55 55 56 56 53 49 50 53 55 56 58 59 58 57 57 60 64 67 65 63 63 63 62 61 62 64 63 60 58 57 57 59 62 61 58 57 56 55 57 60 59 58 58 59 60 59 57 57 58 59 59 58 56 53 51 51 51 50 48 48 50 52 50 49 49 49 50 51 52 52 53 53 53 51 51 50
46 48 50 51 52 52 54 55 55 56 56 56 56 57 57 54 50 50 53 56 57 58 59 58 57 57 59 62 66 67 65 63 62 62 61 60 61 62 61 58 56 56 56 58 59 57 55 56 55 56 57 57 56 55 55 56 55 54 53 54 56 57 57 56 53 51 50 50 49 49 48 49 52 51 49 48 48 48 49 50 51 52 52 51 49 48 47 46
47 48 49 50 50 50 51 52 52 53 53 54 55 55 54 52 53 57 59 58 59 60 60 59 58 60 62 64 66 66 64 62 62 61 60 60 61 62 60 59 57 56 57 58 58 55 53 52 53 54 55 53 52 52 53 53 52 51 51 53 55 56 55 54 52 51 50 50 50 49 49 51 52 49 47 47 47 48 49 50 51 51 50 47 46 46 45 45
45 46 45 44 44 44 44 44 44 45 46 47 48 48 50 54 58 60 60 59 62 63 61 61 61 63 64 65 67 65 62 61 61 61 60 59 60 60 59 57 57 58 60 60 57 55 53 50 50 51 51 51 51 52 53 53 53 52 53 55 57 56 55 54 53 52 51 51 51 50 50 51 50 47 46 46 47 48 50 50 50 49 47 45 45 45 45 45
41 39 37 37 37 37 37 37 37 37 38 39 41 44 49 53 55 55 57 60 63 63 62 63 63 64 65 66 67 64 61 60 60 60 60 58 57 57 56 55 56 57 59 58 55 54 56 55 53 52 50 50 51 53 55 55 54 55 56 57 57 57 56 55 53 53 52 51 50 50 51 50 48 47 46 45 47 49 49 49 48 47 46 44 43 43 43 44
34 32 31 31 31 31 31 31 32 33 35 37 41 44 47 47 48 50 54 57 59 59 61 62 62 62 64 65 63 61 60 60 59 58 59 59 59 58 55 55 56 57 56 54 53 53 54 56 56 54 52 52 53 54 55 55 55 56 56 57 58 57 57 56 54 53 52 50 50 50 50 48 47 45 45 45 48 49 49 48 47 46 45 44 43 43 43 45
28 28 27 26 26 26 27 28 30 33 36 39 41 42 42 43 45 47 49 51 54 55 56 57 56 57 58 58 56 56 58 58 57 57 57 57 58 57 56 57 59 59 57 54 54 53 53 53 53 52 52 53 53 53 54 55 56 56 57 58 59 58 57 56 54 52 51 49 49 49 49 47 46 44 45 46 48 49 48 47 46 45 44 44 44 44 44 45
25 23 22 22 22 23 25 27 30 33 36 38 38 38 39 40 42 43 46 48 51 52 52 52 52 51 51 50 50 51 52 52 53 55 55 55 54 53 53 56 59 59 57 56 56 55 53 53 52 52 51 52 52 53 53 55 55 57 58 60 59 58 56 55 53 51 50 49 48 48 47 46 45 45 45 47 48 48 48 47 46 46 45 45 45 45 45 45
20 19 19 20 21 23 25 28 31 33 34 35 35 37 39 40 41 44 47 48 49 48 49 49 50 49 48 47 47 48 47 48 50 52 52 52 52 53 52 52 55 56 55 56 57 57 54 52 53 53 51 51 51 52 53 54 56 58 59 58 56 54 53 52 51 50 49 49 48 47 46 45 45 46 46 48 49 49 48 47 47 46 46 46 46 45 45 45
17 18 19 20 23 26 28 30 32 33 33 35 37 40 41 44 47 49 49 48 48 48 50 51 52 51 50 48 48 48 48 49 51 51 51 50 51 54 54 52 53 54 54 57 60 60 55 52 52 52 50 50 51 52 53 54 56 57 56 55 53 52 51 50 50 49 49 48 47 47 46 46 47 48 47 49 50 49 48 48 48 47 47 47 46 45 45 45
18 20 21 23 25 28 30 32 32 33 35 38 41 43 46 49 52 53 52 51 52 54 55 55 55 53 51 49 49 49 50 51 51 51 52 50 49 53 57 56 55 55 56 59 61 60 55 52 52 51 50 50 51 52 54 54 55 55 54 54 53 52 51 51 50 50 49 49 48 47 47 47 48 48 49 49 50 49 48 48 48 48 47 46 46 45 45 45
21 22 24 25 28 30 31 33 34 36 39 42 45 48 52 54 55 56 55 55 56 60 61 60 59 55 52 51 50 50 51 52 52 53 53 52 50 51 55 58 59 58 58 59 59 57 54 52 51 50 49 49 51 52 53 54 54 54 54 54 54 52 52 51 50 50 50 50 50 49 48 48 49 49 49 49 49 49 49 49 49 48 47 46 46 46 45 45
24 26 27 28 30 32 33 34 37 41 44 48 51 54 56 58 58 57 56 55 57 61 63 63 60 56 53 52 51 51 52 54 54 54 54 54 53 52 53 56 58 57 56 56 56 55 52 51 50 50 49 49 50 52 52 53 53 53 53 53 53 53 52 51 51 51 51 51 50 49 48 49 50 50 50 50 50 50 49 49 49 48 47 47 46 46 46 46
25 28 31 33 35 37 38 40 43 46 49 52 55 57 59 60 58 55 54 54 57 62 64 62 59 56 54 53 53 52 54 54 54 54 54 54 54 53 54 54 55 55 55 54 55 54 52 52 52 53 50 47 49 51 51 52 52 52 52 53 54 54 53 52 53 53 52 51 50 49 48 49 50 50 50 50 50 50 49 49 49 49 48 48 47 47 47 47
26 29 33 37 40 42 43 46 48 49 51 54 56 58 59 58 54 52 53 54 56 60 62 61 58 56 54 54 53 53 54 55 54 54 54 54 53 53 54 53 53 54 54 54 55 54 54 54 55 55 51 48 49 51 51 51 52 52 53 54 55 55 54 53 54 54 53 52 51 50 49 49 50 50 51 51 51 50 50 50 49 49 49 49 49 48 48 48
30 32 35 39 43 46 47 49 51 52 53 54 56 57 56 53 49 50 53 54 55 55 57 57 57 56 55 54 53 52 53 54 54 54 55 54 53 53 54 54 53 53 53 53 53 53 54 56 56 55 53 51 51 52 53 54 55 55 55 56 57 57 56 55 55 54 54 53 52 51 50 51 52 52 52 53 52 52 51 50 50 50 50 50 50 50 49 49
34 36 38 41 45 47 49 50 52 53 53 53 55 55 52 48 47 50 52 52 51 51 50 49 50 51 52 53 53 53 54 54 54 55 55 56 56 56 56 56 55 54 54 54 52 52 53 55 55 54 54 53 52 53 54 55 56 56 57 58 59 59 58 57 57 56 56 55 54 53 53 54 54 54 54 54 54 52 52 51 52 52 51 51 51 51 51 50
37 39 41 44 46 48 50 51 52 53 53 53 53 51 48 45 45 48 49 48 47 47 46 46 46 47 49 50 51 52 54 54 54 55 55 57 58 58 58 59 58 57 57 56 54 54 54 54 54 54 54 53 53 53 54 55 56 56 57 58 60 60 59 59 58 58 57 57 57 56 56 57 57 56 56 55 54 53 53 53 53 53 52 52 53 52 51 50
38 39 41 43 46 48 50 51 51 50 51 50 49 46 44 43 43 45 46 46 46 46 46 46 46 47 48 50 50 51 52 53 53 54 55 56 57 57 57 59 60 60 59 58 57 56 56 55 54 54 54 54 54 54 55 56 57 57 58 59 60 60 60 60 59 59 59 59 59 58 58 58 58 57 56 56 56 55 55 55 55 54 53 53 53 53 52 51
39 39 39 41 45 48 49 48 47 47 47 46 45 43 42 41 42 43 44 45 45 45 46 46 46 47 48 49 51 51 52 52 52 53 53 54 55 56 56 57 58 58 58 58 57 56 56 55 54 54 55 55 55 55 56 57 58 58 59 60 61 61 61 61 61 60 60 60 60 59 59 59 58 58 58 58 58 58 57 56 56 55 54 53 54 54 53 51
41 39 39 41 44 46 46 45 45 45 45 45 44 42 41 41 40 40 40 41 42 43 45 45 46 46 47 48 49 50 51 52 52 53 53 52 53 54 54 55 55 55 55 56 56 56 55 54 54 54 54 55 55 55 56 57 58 59 59 60 61 62 62 63 63 63 62 62 62 61 61 61 60 61 61 61 60 59 58 57 57 56 54 54 54 55 54 51
41 40 41 42 43 45 45 45 45 45 46 46 44 43 42 41 39 38 37 37 39 41 44 45 45 46 46 46 47 48 49 50 50 51 51 51 51 51 52 52 53 53 54 54 54 54 54 54 55 55 55 54 54 55 56 56 57 58 59 59 61 62 63 64 64 65 65 64 64 63 63 62 62 62 62 62 61 60 59 58 57 56 55 54 54 56 56 51
Wind_Direction
265 265 265 264 264 264 263 263 262 262 261 261 260 260 259 258 258 257 255 253 251 249 247 246 246 246 246 246 246 246 244 243 242 241 242 242 241 242 242 242 243 243 242 242 241 242 242 243 244 245 246 246 247 247 248 248 249 250 250 251 251 251 251 252 252 253 253 255 256 257 258 259 260 261 261 263 264 265 267 268 270 271 272 273 273 274 274 274
265 265 265 264 264 264 263 263 263 262 261 261 260 259 259 258 257 257 256 255 254 252 250 248 246 245 245 245 246 246 245 244 243 242 241 241 240 241 241 242 242 242 242 242 242 242 242 242 243 245 246 246 247 247 248 249 249 250 250 251 251 252 252 252 253 253 254 255 256 257 258 258 259 260 261 263 264 265 266 268 269 270 272 272 273 273 274 274
266 266 265 265 264 264 263 263 263 262 262 261 260 259 258 258 257 256 255 255 254 253 252 250 248 246 244 244 245 245 245 244 244 243 242 241 240 240 240 241 241 242 242 242 242 242 242 242 243 244 245 246 247 247 248 249 249 250 250 251 251 251 252 253 253 254 254 255 256 257 257 258 259 260 261 262 263 264 266 267 268 270 271 272 272 273 273 274
266 266 265 265 265 264 264 263 263 263 262 262 261 260 259 258 257 256 254 254 253 253 252 252 250 248 246 244 244 243 244 243 243 244 244 242 241 240 239 240 241 241 241 242 243 242 243 243 243 244 245 245 246 246 247 248 249 249 250 250 250 251 252 253 254 254 255 255 256 257 257 258 258 259 261 262 262 264 265 267 268 270 271 272 272 273 273 274
266 266 265 265 265 265 264 264 264 263 263 262 262 261 259 258 257 255 254 253 252 252 252 251 251 250 248 246 244 243 243 242 242 244 244 243 242 240 239 239 240 240 241 241 242 242 243 243 244 244 244 245 246 246 247 247 248 249 249 250 251 252 252 253 254 254 255 256 256 257 257 258 258 259 260 261 262 263 265 267 269 270 271 271 272 272 273 274
266 266 266 266 265 265 265 264 263 263 262 261 261 260 259 257 256 254 253 252 251 250 250 250 250 250 249 248 246 244 243 242 242 243 243 242 242 241 240 240 239 239 240 240 241 242 242 243 243 244 245 245 246 246 246 247 248 249 250 251 252 252 253 253 254 254 255 256 256 257 257 257 258 259 259 260 262 263 265 267 269 270 271 271 272 272 273 273
267 267 266 266 265 265 264 264 263 262 261 260 259 258 257 256 255 254 253 252 251 250 249 249 248 249 249 248 247 246 244 243 241 241 242 241 242 241 241 240 239 239 239 239 240 241 241 242 243 243 244 245 246 246 247 247 248 250 251 251 252 252 253 253 253 254 254 255 256 256 256 257 257 258 258 259 261 263 266 267 268 269 270 271 272 272 272 274
267 267 266 266 265 264 263 263 262 261 260 259 258 256 255 254 254 253 253 252 251 250 249 248 247 247 247 247 247 247 247 245 242 241 241 240 240 240 240 241 240 239 238 238 239 239 240 241 242 243 244 245 245 246 247 248 249 251 251 251 251 252 253 253 254 254 254 254 254 254 255 256 256 257 257 259 261 264 266 267 268 269 270 271 271 272 273 274
268 267 266 266 265 264 263 262 262 260 260 259 259 257 256 254 253 252 252 251 251 250 249 248 247 246 246 246 246 247 247 246 243 242 242 240 239 239 239 240 240 239 238 238 238 238 239 240 240 241 242 243 245 246 247 249 250 251 252 252 253 254 254 254 254 254 254 254 254 254 254 255 256 256 257 260 263 265 266 266 267 268 269 270 271 272 273 274
268 267 266 265 265 264 264 263 262 261 261 260 260 259 257 255 254 252 251 250 250 249 249 248 247 245 245 244 244 245 247 246 244 243 242 240 239 239 238 239 240 240 239 238 237 237 237 238 239 240 241 242 244 245 247 248 250 251 252 253 254 254 254 254 254 254 254 254 254 254 254 255 256 257 259 263 264 264 265 266 267 268 269 270 271 273 274 275
267 266 265 264 264 263 263 263 263 262 261 261 260 259 258 256 254 253 251 250 249 248 248 247 246 245 244 243 242 243 245 246 245 244 243 242 240 238 237 237 238 239 239 238 237 236 236 237 238 239 240 241 243 244 245 246 248 250 252 253 253 253 254 254 254 255 255 255 254 254 255 256 257 259 262 264 264 264 265 266 267 269 270 271 273 274 274 275
266 265 264 263 262 261 261 261 261 262 261 260 259 259 258 256 255 253 252 251 249 248 247 246 246 244 242 241 241 241 243 244 245 245 244 243 241 239 237 236 236 237 237 237 236 236 236 236 237 238 239 240 241 243 244 245 247 249 250 251 251 252 253 253 254 254 254 254 254 255 256 258 259 262 263 263 264 264 265 267 268 270 271 272 273 273 274 275
266 265 264 263 262 261 260 259 259 260 260 259 259 258 257 256 254 253 252 251 250 248 246 244 244 243 241 240 239 240 241 243 244 244 244 243 242 240 237 235 235 235 235 236 236 236 236 235 236 237 238 239 241 242 243 244 246 247 248 248 249 250 251 252 253 253 253 254 255 256 258 259 261 263 263 263 264 266 267 268 269 270 271 272 272 273 274 275
266 265 264 263 262 260 260 259 258 258 259 259 258 257 256 255 254 253 252 251 250 248 245 243 242 241 239 238 239 239 240 241 242 243 243 242 241 240 238 236 234 234 234 235 236 236 236 236 236 236 237 238 240 241 242 243 244 245 246 246 247 248 250 251 251 251 252 253 256 258 260 262 263 264 264 264 265 267 268 269 269 270 270 271 272 273 275 276
267 265 264 263 262 261 260 259 258 258 258 258 258 256 256 255 254 252 251 250 249 248 245 242 240 239 237 237 239 239 238 240 240 240 241 242 241 241 240 238 235 234 234 235 236 237 237 237 236 236 236 237 238 239 240 241 243 243 244 244 246 247 248 249 249 250 252 254 257 259 261 262 263 263 263 264 265 266 267 268 268 269 270 272 273 274 275 277
267 266 265 263 262 261 260 259 258 257 257 257 257 256 255 254 253 251 250 250 249 247 244 240 238 237 236 236 238 238 237 238 239 239 240 241 241 240 240 239 237 235 234 234 235 236 237 237 237 236 236 236 237 238 239 240 241 242 243 244 245 247 247 248 249 251 253 255 258 260 261 262 262 262 262 263 263 265 266 267 268 270 271 272 274 275 277 279
267 266 265 263 262 261 260 258 257 256 256 256 255 254 253 252 251 250 249 248 248 246 242 239 236 235 235 236 237 237 236 237 238 239 239 240 240 240 240 239 237 235 234 234 234 235 236 236 236 236 236 236 236 237 237 239 240 242 243 244 245 246 246 248 250 251 253 256 257 259 260 261 260 260 261 262 263 264 266 267 269 271 273 274 276 277 279 280
267 266 264 263 261 260 259 258 256 255 254 254 253 252 251 251 249 248 246 246 246 245 241 238 235 234 233 235 235 235 236 237 237 237 237 238 239 239 239 239 238 236 234 233 233 234 235 236 236 236 236 236 236 236 237 238 239 241 242 242 243 244 246 248 250 252 254 255 257 258 258 259 259 259 261 262 264 265 267 269 271 273 274 275 276 277 279 279
268 266 265 263 262 260 258 256 255 254 253 252 251 250 249 249 247 246 244 244 244 243 240 237 234 233 232 233 234 235 235 236 236 236 236 237 237 237 237 237 237 236 235 233 233 233 234 235 235 236 236 236 236 236 236 236 237 239 240 240 241 243 246 248 250 252 253 255 256 256 257 258 259 261 262 264 265 267 269 270 272 273 274 275 276 277 278 278
268 267 265 264 262 260 257 255 253 252 251 250 249 248 247 247 246 244 243 242 242 241 239 236 234 233 232 233 234 234 234 234 235 234 234 235 235 236 236 236 236 236 235 233 232 231 231 233 234 234 235 235 235 235 235 235 236 238 239 240 242 244 247 249 251 252 253 254 254 255 257 259 260 261 263 265 267 269 270 271 272 273 273 274 275 276 277 277
267 266 265 263 261 258 256 254 252 250 249 249 248 247 246 246 244 243 240 239 239 239 237 235 234 232 232 232 232 232 232 233 233 233 233 233 234 234 235 236 236 236 234 232 231 230 230 231 232 233 234 234 234 234 234 234 235 237 239 240 242 244 246 249 250 252 253 253 254 255 257 258 260 262 264 266 268 269 270 271 272 273 273 274 275 276 277 278
266 265 263 260 258 256 254 252 250 249 248 247 246 246 245 244 242 240 238 237 237 237 236 235 233 232 231 230 230 230 230 231 231 231 231 231 232 233 234 234 235 235 234 231 230 229 229 230 231 233 233 234 234 234 234 235 236 237 238 240 242 244 245 247 249 250 252 253 254 256 257 259 260 262 264 266 267 268 270 271 272 272 272 274 275 277 277 278
264 262 259 257 255 253 252 251 249 248 247 246 245 245 243 241 240 238 237 236 236 236 236 234 232 231 230 229 229 229 229 229 230 230 230 230 230 232 232 233 234 234 233 231 229 228 227 228 230 232 232 233 233 233 234 235 236 237 238 239 241 243 244 246 247 249 250 252 253 255 257 259 261 263 264 265 266 268 269 270 270 271 272 273 275 275 276 277
262 259 256 254 253 252 250 249 248 247 246 245 245 243 241 239 238 237 236 236 236 236 236 234 233 232 231 229 228 227 228 229 229 230 229 228 229 231 231 232 232 232 231 229 227 226 225 225 227 229 230 231 232 233 234 234 235 236 237 238 239 241 243 244 246 247 249 251 253 255 257 259 261 262 263 264 265 266 267 268 268 269 270 272 273 274 276 278
260 256 254 253 252 251 250 249 248 247 247 245 244 242 240 238 238 237 236 235 236 236 236 235 233 231 230 229 227 226 227 227 228 228 228 227 227 228 230 230 231 231 230 228 226 224 223 224 226 227 228 230 232 232 232 233 233 233 235 236 238 240 242 243 245 246 247 249 252 254 257 259 260 260 261 263 264 265 265 266 266 267 270 271 273 275 277 279
257 255 253 253 252 252 251 249 248 248 247 245 243 241 240 238 237 236 235 235 235 236 235 234 232 231 230 228 226 225 225 225 226 226 227 226 225 227 228 229 229 229 229 227 225 224 223 224 226 227 229 230 231 231 231 232 232 232 234 235 237 239 241 242 243 244 245 248 251 253 255 257 257 258 260 262 263 263 263 264 266 268 270 271 273 275 278 280
255 254 254 254 254 253 252 251 250 249 247 244 242 241 239 238 237 236 235 235 235 235 234 231 230 229 227 226 225 225 224 224 224 225 225 224 223 225 228 228 229 229 228 226 225 224 224 225 227 228 229 230 230 231 231 231 231 231 233 235 236 238 240 241 242 243 244 247 250 252 254 255 256 257 259 260 260 260 263 265 267 269 270 271 274 276 279 281
256 256 257 257 256 255 254 252 251 248 246 244 242 240 239 237 236 235 235 234 234 233 232 230 228 227 225 224 224 224 223 223 223 222 222 222 221 223 226 226 227 228 226 224 223 223 224 224 226 227 228 228 228 228 228 228 228 229 231 233 234 236 238 240 241 242 244 246 249 251 252 253 255 257 257 257 258 260 264 267 268 269 270 272 275 279 281 281
260 260 260 259 257 256 254 252 250 248 245 243 240 238 237 236 235 234 232 232 232 230 229 228 226 225 223 222 222 222 223 222 221 221 222 222 220 222 224 224 224 225 225 223 221 221 222 223 224 225 225 225 225 226 227 227 226 228 230 231 233 234 236 238 239 241 243 245 247 249 250 252 254 255 255 256 258 261 264 267 269 270 272 275 278 281 282 281
263 262 261 259 257 255 253 251 249 247 244 241 239 237 236 234 233 231 229 229 229 227 227 226 224 223 221 220 221 222 222 221 220 221 222 222 220 220 222 223 222 223 223 223 224 224 224 224 225 224 223 224 225 225 225 226 226 228 230 231 231 232 234 237 239 241 243 244 245 246 249 251 253 253 254 256 259 261 263 266 269 271 274 278 281 282 281 281
265 264 262 260 258 256 254 251 249 246 244 241 238 236 235 233 231 228 227 227 227 225 225 224 222 222 221 220 221 222 222 221 220 221 222 222 222 222 223 223 223 223 223 224 225 227 227 226 225 222 221 223 225 225 225 226 227 229 230 230 231 233 234 237 239 241 241 242 243 245 247 249 250 251 254 257 259 261 263 265 268 272 276 279 281 281 281 280
267 265 263 261 258 256 253 251 248 245 243 240 238 236 234 232 229 228 227 226 225 224 224 223 222 221 220 220 222 222 221 220 221 221 221 221 222 224 224 222 221 222 224 225 225 226 225 224 221 219 220 222 223 224 225 226 227 228 228 230 232 234 235 237 239 240 240 241 243 244 245 247 248 250 254 256 258 260 262 264 268 272 276 279 280 279 278 278
268 266 263 261 258 254 251 248 245 243 241 238 236 235 233 231 228 227 225 224 225 225 223 222 221 220 220 221 222 223 221 220 220 220 220 220 220 222 222 221 219 217 218 220 221 220 219 219 218 217 219 220 220 221 223 224 225 225 226 229 232 233 234 236 237 238 239 240 241 242 243 244 247 250 253 256 258 259 261 264 269 273 276 277 277 276 275 275
269 266 262 258 254 250 246 243 240 238 236 234 233 231 229 227 225 224 222 222 223 223 222 221 221 221 221 221 223 223 222 222 221 220 218 218 219 220 220 219 217 215 214 215 215 212 209 211 215 218 219 219 218 219 220 221 222 222 223 226 229 231 233 234 235 236 236 237 238 239 241 243 246 250 252 254 257 259 262 266 270 272 274 275 275 274 274 273
268 263 258 253 248 244 240 237 234 231 228 226 223 221 220 221 221 220 220 220 221 221 220 220 220 221 221 222 223 222 221 221 221 220 217 215 215 215 215 214 212 210 211 211 210 207 204 206 210 214 217 217 217 217 218 220 220 220 222 224 227 230 232 233 233 234 234 235 237 239 241 244 247 249 252 254 256 259 263 267 270 271 273 273 273 272 271 271
263 257 251 246 242 238 234 230 225 221 217 214 213 213 213 214 213 213 215 216 217 218 218 218 219 220 221 222 223 222 220 218 217 216 214 211 209 208 206 204 202 202 204 204 204 203 204 206 208 211 213 215 216 216 217 219 219 220 221 224 227 229 231 232 232 233 233 235 237 239 242 245 247 249 251 253 256 260 264 267 269 270 272 272 271 269 269 269
256 250 245 240 234 229 223 218 214 211 208 207 208 207 206 206 206 206 207 210 210 211 212 213 213 215 217 219 219 218 217 214 211 208 206 205 205 204 201 197 197 199 200 199 200 202 204 207 209 211 213 214 215 216 217 219 220 221 222 224 226 227 229 231 232 233 234 236 237 240 242 245 247 248 250 253 257 261 264 266 267 268 269 270 270 269 269 269
250 244 237 230 222 215 210 206 204 202 203 203 202 200 199 198 199 198 198 201 203 203 204 203 203 204 206 206 206 206 205 203 202 200 198 198 198 198 196 194 196 200 200 199 202 205 206 207 210 212 213 215 216 216 217 219 221 222 223 224 226 227 229 231 233 234 236 236 238 240 243 244 246 247 249 253 257 260 263 264 264 265 267 269 269 270 271 272
242 233 224 215 206 201 198 196 196 196 196 195 191 189 189 187 186 187 189 192 195 195 193 191 190 190 189 188 189 189 189 188 189 190 192 193 193 191 190 193 197 201 201 202 205 209 211 211 211 211 213 216 217 217 218 219 222 224 225 226 227 229 231 234 236 237 238 238 239 240 242 243 245 247 250 254 257 260 261 262 262 264 266 268 270 271 274 276
225 215 206 199 194 191 188 187 189 189 186 183 181 180 179 177 176 178 182 185 184 182 181 179 178 178 177 177 178 179 179 181 184 187 190 193 193 190 189 194 200 202 203 204 206 210 215 215 212 211 214 217 218 219 218 220 223 225 226 227 228 229 231 234 236 238 238 239 239 240 241 242 245 248 251 254 257 259 260 260 260 262 265 268 271 274 276 279
206 198 191 187 186 184 182 181 181 179 176 175 174 173 171 172 173 174 176 178 175 173 172 171 171 171 171 172 175 177 178 181 184 187 191 194 195 193 192 195 199 202 203 204 207 212 215 214 212 212 215 218 219 219 219 220 223 225 226 228 228 228 230 232 234 236 237 237 238 238 240 242 245 248 251 254 257 259 259 258 259 262 266 270 272 275 278 281
193 186 181 179 179 179 178 176 173 170 169 168 167 167 168 170 172 173 174 175 173 170 168 168 168 169 170 172 176 179 180 181 184 187 191 193 195 196 196 198 200 202 203 205 209 212 213 212 212 214 217 219 219 221 221 220 222 225 226 228 229 229 230 232 234 236 237 237 238 238 240 243 246 249 252 255 257 257 257 258 260 263 267 270 273 276 279 281
185 178 173 172 172 171 170 168 166 165 165 165 165 166 168 170 174 175 175 173 171 169 168 168 168 170 172 174 177 180 182 183 185 187 190 192 193 195 197 199 201 203 205 207 209 211 212 213 216 217 219 220 220 221 222 221 223 225 227 229 230 231 231 233 234 235 236 238 239 241 242 245 248 251 254 255 256 257 258 260 262 265 268 271 273 276 278 282
182 175 169 166 166 165 163 162 163 164 165 165 166 167 169 173 177 176 172 169 169 171 171 171 172 173 176 177 178 182 184 186 187 188 189 192 194 196 197 199 200 202 206 208 210 213 215 217 220 220 220 223 223 222 222 223 223 225 227 229 230 231 232 233 234 235 236 238 240 242 244 247 250 253 255 256 257 258 260 261 264 266 269 271 273 275 278 281
175 174 169 164 162 161 161 161 162 164 166 166 167 168 171 176 177 172 167 166 168 172 175 176 177 179 181 182 183 184 186 187 189 190 190 192 195 198 200 201 202 204 208 210 213 215 216 217 220 220 223 227 225 223 223 224 224 225 227 228 229 231 232 233 234 235 236 238 240 242 244 247 250 253 255 256 258 259 260 263 265 267 269 271 273 275 278 280
168 169 168 163 161 161 162 162 163 165 167 167 167 170 174 177 173 167 166 167 168 172 176 179 182 184 187 188 189 188 189 190 192 193 195 196 199 201 203 205 206 208 211 213 215 217 218 220 221 223 226 228 225 222 223 224 224 224 225 225 227 229 231 232 234 235 236 238 240 242 244 247 249 251 254 256 258 260 262 264 266 268 269 271 273 275 278 280
164 164 163 162 161 162 163 164 164 166 167 168 169 171 175 175 170 166 167 169 171 173 176 178 181 184 188 192 194 195 195 195 197 198 200 201 203 204 205 207 210 212 215 216 218 220 222 223 225 227 228 227 225 224 225 225 225 225 225 225 226 228 230 231 232 234 236 238 240 241 244 246 248 251 253 256 259 261 263 265 266 267 269 270 272 275 278 281
162 162 162 161 162 162 164 165 166 166 167 168 170 172 174 172 169 167 169 171 173 175 176 178 180 181 185 188 192 196 198 200 202 204 206 207 208 208 209 210 213 215 217 218 220 222 224 225 226 227 226 226 226 227 227 227 228 228 228 228 228 230 232 232 233 234 236 239 240 242 244 247 249 252 254 257 260 262 264 265 266 267 268 270 273 275 278 282
160 160 161 161 162 164 166 168 168 166 166 167 170 171 172 171 170 170 172 174 176 176 177 179 180 182 184 186 189 192 195 198 202 204 208 210 212 213 215 216 218 219 220 221 223 225 226 226 227 226 226 226 227 228 228 228 229 229 229 229 229 231 233 235 236 237 239 241 243 244 247 249 252 254 256 259 261 262 263 264 265 267 269 271 274 276 279 282
157 158 160 161 163 166 168 169 167 165 163 166 168 170 171 173 173 174 175 176 177 178 179 181 182 184 186 188 189 192 194 197 200 203 206 209 211 213 216 218 221 223 225 226 227 228 228 229 228 228 227 227 227 228 229 229 229 229 229 229 229 231 233 236 238 240 241 243 245 247 249 251 253 255 257 259 260 261 263 264 266 268 270 272 274 276 279 283
155 158 160 162 165 168 169 168 166 163 164 167 171 173 174 175 177 177 177 176 176 178 180 182 184 186 188 190 192 193 195 198 201 204 206 208 210 212 214 216 219 221 224 226 227 229 230 230 230 230 231 230 229 230 230 231 231 231 230 230 231 232 233 235 238 240 242 244 246 248 249 251 253 255 257 258 260 261 263 265 267 268 270 272 274 276 279 282
156 161 163 164 165 167 169 169 167 166 168 171 174 177 178 179 180 180 180 179 179 180 183 184 186 188 190 193 194 196 198 199 202 205 207 210 211 213 214 216 218 220 222 224 226 228 230 230 231 231 232 232 231 231 232 233 234 234 233 233 233 234 235 236 238 240 242 244 246 248 250 251 253 255 256 258 260 261 263 265 266 268 269 272 273 275 279 282